Tracking 28793 objects as of 21-Apr-2024
HD Live streaming from Space Station
objects crossing your sky now

COSMOS 249 DEB

Track COSMOS 249 DEB now!
10-day predictions


NORAD ID: 14410
Int'l Code: 1968-091CL
Perigee: 626.2 km
Apogee: 1,273.1 km
Inclination: 62.2 °
Period: 103.9 minutes
Semi major axis: 7320 km
RCS: 0.0157 m2 (small)
Launch date: October 20, 1968
Source: Commonwealth of Independent States (former USSR) (CIS)
Launch site: TYURATAM MISSILE AND SPACE COMPLEX (TTMTR)

Note: This is SATELLITE DEBRIS
Your satellite tracking list
Your tracking list is empty




NASA's NSSDC Master Catalog

Two Line Element Set (TLE):
1 14410U 68091CL  24112.21266194  .00035943  00000-0  14377-1 0  9992
2 14410  62.2106  40.0144 0441876  76.5820  65.9428 13.86045876993799
Source of the keplerian elements: AFSPC